STARLINK-3859 (52470 NORAD) Tracking and Keplerian Element Data
This shows tracking and keplerian element data for the satellite.
Feedback or suggestion? Click here.
Element | Value |
Catalog | 52470 |
Name | STARLINK-3859 |
Epoch Orbit | 130 |
Epoch Day | 167.08334491 |
Epoch Year | 2022 |
RAAN | 64.9977 |
Inclination | 53.2168 |
Eccentricity | 0.0002055 |
Argument of Perigee | 37.9107 |
Mean Anonmoly | 102.7991 |
Mean Motion | 15.73202322 |
Decay Rate | 0.00088948 |
L1 | 1 52470U 22049V 22167.08334491 .00088948 00000+0 63140-3 0 9998 |
L2 | 2 52470 53.2168 64.9977 0002055 37.9107 102.7991 15.73202322 1306 |
Live tracking and technical data element details for STARLINK-3859 (NORAD 52470). STARLINK-3859 can be tracked NOW for your location showing map with azimuth and elevation plus other details from your city location.
Track the satellite on the map from your city or location and see movement details for azimuth, elevation, latitude, longitude, range, height, and movement on the map or in text.
IsCatalogInMostPopularTable: catalog: 52470, numindb: 1
Update: records affected: 1
GetName: 52470 STARLINK-3859
Hit Count: updated at: Sat, 25 Jun 2022 04:18:17 GMT